Find Starlink 33972

NORAD ID: 63893 Int'l Des: 2025-095 Owner: SPXS Country: US Constellation: starlink operational
LEOCIRCULAR

リアルタイム位置

3D地球を読み込み中...

Starlink 33972について

説明を読み込み中...

次回通過

Passes for default location (London). Set your location on the main map for personalized predictions.

高度履歴

Loading altitude history...

軌道要素

1 63893U 25095D 26104.89125154 -.00080535 00000-0 -29598-2 0 9996
2 63893 43.0020 331.8333 0003637 276.3237 83.7201 15.27451857 53322
Epoch: Apr 14, 2026 • Age: 11 hours

現在のステータス

高度 487.5 km
速度 7.62 km/s
衛星直下点 -23.34°S, 24.94°W
打ち上げ日 May 10, 2025
運用期間 0.9 years
タイプ internet

技術仕様

分類 Payload
質量 575.00 kg
乾燥質量 530.00 kg
総質量 575.00 kg
長さ 0.30 m
直径 4.10 m
スパン 29.00 m
形状 Box + pan
製造者 SPXS
バスタイプ Starlink V2MO
フェーズステータス In Orbit
所有者/国 SPXS/US

Most Searched